Location: Rounton
(54.4000°N, 1.3500°W)
Time: 15:17:31
(UTC+00:00)

Transit 2A Rocket - Pass Details

Date: 01 December 2021
Orbit: 584 x 918 km, 66.7° (Epoch: 21 January)

Event Time Altitude Azimuth Distance (km) Brightness Sun altitude
Rises 17:06:34 0° 317° (NW) 3,568 8.7 -11.0°
Reaches altitude 10° 17:09:12 10° 312° (NW) 2,619 8.1 -11.4°
Maximum altitude 17:15:02 48° 241° (WSW) 1,168 6.5 -12.2°
Drops below altitude 10° 17:20:37 10° 169° (SSE) 2,499 7.8 -12.9°
Sets 17:23:05 0° 163° (SSE) 3,389 8.4 -13.3°
